RH
72 78 80 81 80 77 51 47 33 34 32 31 32 43 37 28 22 25 23 22 20 18 18 20 22 27 27 28 30 34 29 65 74 73 81 67 77 89 90 92 92 72 79 70
72 80 81 81 76 72 41 42 38 38 32 37 37 41 38 26 22 21 21 21 20 20 24 29 22 21 25 27 31 35 35 63 74 80 82 55 72 73 76 82 87 87 80 65
78 81 80 78 73 67 44 40 44 38 35 33 43 55 44 40 25 25 22 24 25 23 22 21 31 26 26 28 30 31 39 43 52 60 53 63 76 71 74 80 90 72 78 71
80 80 78 79 75 65 50 44 55 51 49 42 43 47 44 39 47 32 29 37 28 28 39 36 39 35 30 33 33 33 36 68 48 52 46 45 49 56 69 86 76 81 71 74
78 81 79 79 75 70 49 54 67 55 56 46 44 51 49 48 50 53 53 48 45 41 48 50 72 61 50 44 30 35 34 69 51 64 40 35 40 35 37 56 79 76 73 74
73 80 81 80 75 58 51 50 48 57 57 51 58 53 54 57 55 52 50 52 62 65 55 40 34 34 37 39 40 37 43 60 58 69 34 33 43 40 37 47 50 69 79 66
69 69 71 73 78 69 50 49 54 92 67 59 56 56 59 60 60 67 56 52 60 45 29 34 37 38 37 34 34 32 46 60 72 73 47 70 38 28 35 41 40 46 49 50
73 71 69 68 68 72 63 53 69 93 88 60 60 60 59 62 52 57 55 48 32 30 44 66 68 37 44 44 40 39 35 58 90 85 58 42 33 37 46 55 46 34 44 40
74 75 75 74 71 70 64 65 71 95 98 63 62 70 66 88 69 58 72 61 43 42 52 63 75 64 51 50 42 42 44 60 80 78 82 69 50 32 29 34 47 34 37 75
75 76 76 75 75 75 80 75 62 82 98 66 68 87 92 84 86 87 81 59 55 47 71 61 71 49 40 55 56 56 53 69 85 77 86 56 38 62 37 60 90 70 49 81
74 75 76 75 73 72 81 88 75 86 100 77 69 95 95 83 81 75 46 54 53 58 63 76 62 67 49 66 51 86 90 92 85 83 78 68 49 56 80 74 70 53 64 68
74 74 71 74 74 72 72 94 71 64 99 79 67 65 81 85 72 91 69 66 57 77 72 69 68 68 52 74 68 90 86 80 91 84 59 57 55 69 65 73 80 69 76 72
73 71 70 77 68 67 70 89 79 94 94 78 74 68 52 46 52 53 91 59 81 75 84 88 75 76 45 61 72 79 65 68 73 86 63 70 68 73 66 70 83 91 82 82
71 70 74 72 67 75 79 93 96 93 96 91 83 50 56 47 49 50 54 76 74 83 78 92 79 75 75 68 88 85 64 71 80 79 68 79 60 81 93 78 81 83 82 88
72 71 73 67 71 80 85 84 85 91 95 79 58 54 52 49 50 54 54 63 85 86 91 89 86 74 80 77 78 74 90 94 92 92 88 97 91 93 94 95 92 88 88 88
72 73 69 71 70 76 76 87 73 67 89 91 68 50 55 53 52 56 68 71 81 86 86 87 81 87 84 84 76 66 78 91 96 95 94 97 94 95 96 97 97 96 97 96
72 69 69 72 69 60 65 76 78 75 83 83 69 35 46 51 55 60 65 74 78 79 81 80 76 73 82 83 90 75 81 94 94 94 96 87 84 96 95 97 95 91 93 95
70 68 71 73 69 71 72 79 70 74 69 66 80 46 37 59 58 66 64 78 71 72 79 78 74 65 77 91 80 84 85 82 88 87 87 94 96 95 94 95 96 86 87 87
69 70 71 64 61 65 70 80 69 74 64 83 71 62 61 48 45 64 76 73 82 74 80 72 71 72 89 80 90 91 84 92 92 92 88 81 85 84 83 78 90 94 89 86
73 69 62 68 78 76 69 68 62 67 77 79 70 57 62 62 53 61 79 74 79 88 76 64 85 80 77 83 83 83 78 82 87 95 88 87 85 78 69 70 67 72 79 78
90 91 84 91 82 62 67 82 78 72 76 77 67 66 69 61 86 79 80 86 78 89 78 77 73 74 75 86 83 77 79 79 82 92 84 65 66 63 64 68 66 67 72 80
90 91 90 67 70 76 76 70 66 66 54 63 64 60 66 80 82 88 84 87 84 87 69 84 81 70 83 83 78 82 89 92 83 66 62 58 62 58 64 75 73 72 75 79
72 70 76 69 72 78 59 66 63 72 70 68 69 73 68 82 85 89 89 92 88 75 91 79 72 83 82 82 91 80 67 66 62 67 60 61 65 65 69 80 71 77 79 79
88 92 89 80 74 65 62 55 59 56 64 61 69 77 80 79 86 83 92 79 84 89 91 79 78 80 88 85 79 81 77 66 67 67 68 69 76 75 68 75 84 88 85 81
94 91 90 88 62 72 75 84 78 68 69 76 76 82 76 79 86 81 86 90 89 75 76 74 78 90 93 89 82 84 86 81 82 80 83 81 76 80 82 82 84 85 84 84
95 93 94 77 89 83 84 85 82 67 69 78 80 86 91 87 84 90 88 86 82 72 81 75 80 91 92 86 84 75 78 85 88 84 84 85 87 90 90 84 86 86 87 87
91 94 78 84 85 85 68 57 55 56 76 83 87 93 81 89 91 88 75 85 76 84 78 85 92 93 89 86 76 72 77 77 78 82 84 85 79 79 81 84 80 85 86 88
Wind_Speed
20 19 20 23 24 26 5 4 2 6 3 2 3 3 4 2 2 2 3 5 5 5 6 9 6 5 2 4 6 3 2 3 6 2 4 3 4 2 6 5 5 1 3 9
19 20 22 24 25 20 6 5 3 4 6 5 5 3 2 3 2 3 2 4 5 1 5 6 7 6 3 5 5 3 4 4 7 5 3 2 5 7 6 1 2 9 7 4
21 22 24 26 26 18 4 4 4 4 4 2 4 5 2 4 3 4 3 5 4 6 7 9 9 6 1 3 7 1 3 8 13 12 12 1 6 9 12 11 7 9 13 15
23 23 26 28 27 20 5 6 5 3 6 4 7 2 2 6 6 3 3 4 7 7 6 12 16 9 9 7 6 7 7 10 15 18 20 20 21 20 15 17 19 14 12 14
22 21 24 27 29 22 6 5 5 2 5 6 10 1 1 5 6 5 7 7 12 12 13 13 21 19 16 13 1 6 9 9 9 14 17 21 24 22 24 22 19 20 23 28
26 23 21 23 27 18 5 3 2 3 3 4 5 5 7 9 16 8 7 14 17 18 15 10 13 16 18 16 16 10 10 6 9 15 10 12 18 19 21 17 18 14 16 15
24 23 24 23 22 19 5 4 3 4 5 6 7 12 11 16 15 17 19 16 13 6 11 18 19 20 17 13 13 11 12 9 6 9 11 10 4 10 7 10 10 18 14 13
23 22 22 21 21 17 6 3 4 4 8 10 10 12 15 15 15 14 13 9 7 11 13 8 10 4 4 2 1 4 10 9 4 5 8 17 20 8 8 7 7 11 16 10
22 21 21 20 20 17 6 3 2 3 5 3 11 12 15 9 11 8 3 7 8 9 4 4 5 5 9 3 2 3 2 6 6 3 5 6 9 10 8 7 4 14 6 4
23 22 21 21 20 18 5 2 2 1 4 3 9 7 6 6 5 6 4 10 6 6 4 7 6 8 5 6 11 4 3 4 12 12 8 7 13 13 12 5 6 12 9 6
24 23 22 21 21 20 8 2 3 2 3 8 3 4 5 5 4 5 9 2 5 4 7 4 5 4 7 6 13 8 4 5 2 3 4 7 10 9 8 11 7 10 12 14
25 25 25 23 23 21 15 2 2 2 2 5 4 2 4 5 3 4 4 5 8 6 6 6 5 12 9 12 10 4 3 6 7 6 11 22 22 21 19 12 12 15 15 15
26 27 28 26 25 24 11 1 3 1 2 3 3 2 3 2 1 3 3 2 3 2 2 4 4 6 8 9 7 11 4 4 4 9 2 16 21 20 20 13 7 7 14 16
26 29 29 24 22 14 10 4 2 2 2 3 2 1 3 3 3 0 1 2 1 3 3 3 3 5 6 6 5 6 4 7 13 10 13 22 12 22 18 20 10 11 11 11
26 29 26 21 14 11 9 6 5 4 3 4 3 3 4 3 2 1 1 3 3 2 2 2 2 4 5 3 2 4 5 8 8 13 18 16 19 23 21 15 15 13 12 16
25 26 23 14 10 6 3 3 3 6 3 3 2 2 2 0 1 3 5 3 1 1 2 1 2 2 2 4 3 2 9 12 15 12 19 16 16 18 17 13 11 9 9 9
24 24 15 7 11 5 4 4 7 7 2 2 3 3 3 1 1 3 2 2 1 2 0 2 2 2 2 3 3 10 14 13 16 15 17 17 10 16 18 14 14 13 9 7
25 17 4 5 5 7 1 4 6 4 2 2 2 4 5 4 4 2 1 1 1 0 2 2 2 2 2 4 9 14 15 18 13 11 13 14 14 12 13 11 11 14 12 11
22 8 2 1 2 3 4 4 4 1 3 1 1 4 5 3 5 1 2 2 3 1 2 1 3 3 6 7 10 12 15 14 18 15 13 11 13 14 14 14 12 11 12 11
14 2 1 1 2 8 5 3 2 1 1 0 2 1 5 2 5 2 4 0 3 3 2 2 4 5 8 8 10 11 14 14 15 16 12 15 15 16 17 16 13 12 12 12
4 4 2 2 4 2 1 2 2 1 2 2 0 2 4 3 3 3 2 3 2 4 2 3 3 5 4 4 7 14 12 15 14 9 12 15 16 17 17 16 16 14 14 12
4 5 3 2 2 1 2 1 1 3 2 2 2 2 2 2 1 2 1 3 1 4 3 2 4 3 2 7 15 15 13 17 17 17 18 18 17 16 15 14 14 13 13 12
0 1 1 2 1 2 3 1 2 2 3 3 1 3 1 3 2 2 2 4 4 1 3 4 4 3 6 13 9 14 16 18 19 19 18 18 17 16 14 13 12 12 11 9
3 3 5 3 3 5 3 3 3 1 2 3 3 3 2 0 3 0 4 1 2 4 4 5 2 9 11 10 11 13 16 17 18 17 17 17 15 14 14 12 10 10 11 10
3 1 5 5 4 4 2 2 3 3 1 2 2 1 2 2 3 2 3 3 5 5 4 3 8 10 8 11 13 12 12 14 14 14 14 15 14 13 12 11 10 9 9 8
2 5 5 4 3 4 2 3 3 2 2 2 1 1 3 4 2 3 6 3 6 2 2 7 7 9 9 11 11 12 12 12 12 12 13 13 12 12 12 10 9 9 9 8
5 5 4 6 6 7 4 2 1 3 3 2 1 3 3 1 3 4 4 6 3 5 7 5 9 9 9 9 11 12 12 12 12 12 13 11 12 10 8 10 10 9 8 7
Wind_Direction
355 356 355 352 348 347 337 304 287 13 342 8 20 20 336 354 299 204 263 280 274 283 319 296 279 266 262 186 175 237 152 296 274 304 81 31 344 287 184 244 159 221 293 272
6 5 360 355 351 359 315 344 328 15 313 28 11 341 292 264 279 287 272 270 244 289 282 291 264 289 77 172 208 240 167 215 292 188 145 165 229 187 213 42 297 225 265 253
13 13 5 356 354 358 297 321 344 52 59 58 340 340 315 314 219 267 265 286 292 275 254 245 276 276 116 199 239 204 202 249 237 266 306 91 211 201 205 201 230 263 229 266
23 15 10 1 356 358 305 6 45 26 341 19 333 292 301 307 336 248 256 258 247 290 285 300 271 297 307 237 235 218 232 255 255 265 275 280 273 260 210 209 225 249 274 274
20 19 14 8 359 348 56 8 350 326 289 304 313 151 289 318 331 303 293 254 302 303 280 275 293 299 294 280 152 227 232 266 299 278 269 262 267 266 256 228 229 250 259 275
18 16 17 15 10 353 41 36 160 295 291 310 309 357 346 325 323 284 269 295 307 301 305 318 293 281 273 264 275 247 240 256 282 278 276 305 279 257 247 240 232 223 242 251
18 16 15 13 16 11 353 9 310 303 309 319 325 313 313 317 313 293 303 312 302 355 318 297 274 259 261 278 272 266 254 240 254 284 295 254 355 310 287 275 246 206 240 255
11 10 10 11 12 16 355 341 333 332 300 321 310 330 315 313 317 320 310 326 357 325 304 297 311 281 176 159 49 290 240 254 264 267 263 293 305 31 1 3 332 237 231 248
6 4 2 360 360 5 350 350 355 322 309 15 331 322 306 313 333 330 309 30 347 339 296 274 278 314 343 321 166 64 140 248 253 245 272 279 63 19 341 307 285 353 148 93
359 358 357 357 353 350 352 309 169 258 273 307 343 322 330 337 325 305 15 356 339 354 340 317 360 322 333 317 313 350 270 224 224 243 252 276 21 7 325 281 31 350 6 345
354 350 348 350 348 342 337 271 168 193 262 300 0 9 338 344 0 24 336 304 2 315 335 301 345 288 326 287 311 307 297 319 221 247 258 262 20 316 336 327 285 297 299 301
352 348 343 344 347 339 335 243 141 149 211 305 57 67 174 215 295 319 336 354 351 354 320 327 312 305 303 312 305 54 12 342 317 307 315 325 328 314 305 282 262 278 276 279
349 346 346 348 346 336 334 14 105 116 250 226 209 186 190 296 293 6 296 53 360 288 346 309 300 283 304 302 328 348 318 70 267 310 336 305 314 306 297 292 285 300 295 286
344 347 343 355 349 13 31 54 348 297 309 287 122 175 266 116 148 110 330 310 243 280 279 272 292 299 4 327 321 293 317 301 326 289 311 316 320 327 314 298 298 296 287 268
342 343 347 352 9 80 83 77 43 27 341 332 338 304 128 172 228 266 274 298 297 319 253 252 303 344 338 302 258 255 0 335 319 322 320 315 313 319 319 311 295 284 275 277
341 342 356 1 4 183 239 174 56 33 1 273 297 57 210 156 290 24 57 74 13 340 320 355 283 140 280 291 292 310 317 316 312 306 310 306 301 317 329 323 317 298 284 287
341 350 359 55 34 35 22 25 340 352 320 291 299 312 108 10 172 120 86 36 59 311 272 232 299 279 294 276 278 306 317 308 313 312 318 317 323 325 326 327 333 335 328 321
340 354 23 58 80 133 115 11 6 326 296 323 324 317 317 17 328 8 303 18 268 335 337 227 277 291 231 260 290 307 305 311 302 310 313 301 302 306 319 325 325 332 328 322
335 349 126 247 28 356 352 320 295 341 333 331 326 333 330 2 330 9 186 289 264 82 274 223 292 211 228 237 292 309 307 299 300 302 302 312 319 321 324 330 331 324 325 323
332 305 290 217 53 311 307 214 274 235 14 244 261 32 315 356 346 307 324 292 324 287 68 308 230 256 267 272 266 295 305 300 300 303 316 323 325 328 331 328 328 325 321 319
1 337 308 9 305 257 276 276 297 335 233 179 244 259 306 70 296 326 43 320 305 271 95 292 263 261 224 216 297 314 307 301 302 285 301 318 320 325 322 324 325 325 324 321
302 295 338 295 323 237 278 275 235 238 296 186 257 354 274 95 260 264 133 282 258 265 350 266 253 257 347 311 321 337 3 357 342 328 315 315 327 323 320 319 319 325 326 322
154 265 270 321 146 251 231 259 224 266 196 217 257 307 336 155 191 232 265 252 239 298 233 246 251 353 309 327 9 341 334 337 333 334 337 332 329 328 322 320 320 323 319 330
350 353 305 242 210 237 202 244 292 41 249 287 304 276 282 100 224 290 258 12 273 256 238 242 354 330 336 356 345 342 336 340 338 335 334 335 333 331 330 330 328 323 321 324
272 220 250 235 287 269 283 337 287 216 288 230 220 177 272 220 257 218 291 243 249 236 252 323 328 345 354 348 344 336 336 337 334 332 330 329 337 337 331 340 336 336 334 342
245 232 251 224 283 252 213 211 256 154 144 143 205 262 255 235 239 219 224 255 243 278 302 317 338 351 353 346 339 338 341 336 333 335 335 334 341 337 330 341 359 353 354 3
230 240 231 261 281 260 277 214 204 138 184 228 165 238 248 57 238 243 215 229 277 344 321 350 356 353 349 344 335 342 340 337 338 338 331 345 341 335 349 356 358 360 8 18